Time,TemperatureF,DewpointF,PressureIn,WindDirection,WindDirectionDegrees,WindSpeedMPH,WindSpeedGustMPH,Humidity,HourlyPrecipIn,Conditions,Clouds,dailyrainin,SolarRadiationWatts/m^2,SoftwareType,DateUTC
2013-08-13 00:02:00,53.2,50.9,-100.00,SW,234,0.0,0.0,92,0.00,,,0.00,0.0,meteohub,2013-08-13 07:02:00,
2013-08-13 00:07:00,53.2,50.7,-100.00,SW,234,0.0,0.0,91,0.00,,,0.00,0.0,meteohub,2013-08-13 07:07:00,
2013-08-13 00:12:00,53.2,50.9,-100.00,SW,234,0.0,0.0,92,0.00,,,0.00,0.0,meteohub,2013-08-13 07:12:00,
2013-08-13 00:17:00,53.1,50.5,-100.00,SW,234,0.0,1.0,91,0.00,,,0.00,0.0,meteohub,2013-08-13 07:17:00,
2013-08-13 00:22:00,53.1,50.5,-100.00,SW,234,0.0,0.0,91,0.00,,,0.00,0.0,meteohub,2013-08-13 07:22:00,
2013-08-13 00:27:00,52.9,50.5,-100.00,SW,234,0.0,0.0,92,0.00,,,0.00,0.0,meteohub,2013-08-13 07:27:00,
2013-08-13 00:32:00,52.9,50.5,-100.00,SW,234,0.0,0.0,92,0.00,,,0.00,0.0,meteohub,2013-08-13 07:32:00,
2013-08-13 00:37:00,52.7,50.4,-100.00,SW,234,0.0,0.0,92,0.00,,,0.00,0.0,meteohub,2013-08-13 07:37:00,
2013-08-13 00:42:00,52.5,50.2,-100.00,SW,234,0.0,0.0,92,0.00,,,0.00,0.0,meteohub,2013-08-13 07:42:00,
2013-08-13 00:47:00,52.5,50.2,-100.00,SW,234,0.0,0.0,92,0.00,,,0.00,0.0,meteohub,2013-08-13 07:47:00,
2013-08-13 00:52:00,52.5,50.2,-100.00,SW,234,0.0,0.0,92,0.00,,,0.00,0.0,meteohub,2013-08-13 07:52:00,
2013-08-13 00:57:00,52.5,50.2,-100.00,SW,234,0.0,0.0,92,0.00,,,0.00,0.0,meteohub,2013-08-13 07:57:00,
2013-08-13 01:02:00,52.5,50.2,-100.00,SW,234,0.0,0.0,92,0.00,,,0.00,0.0,meteohub,2013-08-13 08:02:00,
2013-08-13 01:07:00,52.5,50.2,-100.00,SW,234,0.0,0.0,92,0.00,,,0.00,0.0,meteohub,2013-08-13 08:07:00,
2013-08-13 01:12:00,52.5,50.2,-100.00,SW,234,0.0,0.0,92,0.00,,,0.00,0.0,meteohub,2013-08-13 08:12:00,
2013-08-13 01:17:00,52.3,50.0,-100.00,SW,234,0.0,0.0,92,0.00,,,0.00,0.0,meteohub,2013-08-13 08:17:00,
2013-08-13 01:22:00,52.3,50.0,-100.00,SW,234,0.0,0.0,92,0.00,,,0.00,0.0,meteohub,2013-08-13 08:22:00,
2013-08-13 01:27:00,52.3,50.0,-100.00,SW,234,0.0,0.0,92,0.00,,,0.00,0.0,meteohub,2013-08-13 08:27:00,
2013-08-13 01:32:00,52.3,50.0,-100.00,SW,234,0.0,0.0,92,0.00,,,0.00,0.0,meteohub,2013-08-13 08:32:00,
2013-08-13 01:37:00,52.2,49.8,-100.00,SW,234,0.0,0.0,92,0.00,,,0.00,0.0,meteohub,2013-08-13 08:37:00,
2013-08-13 01:42:00,52.2,49.8,-100.00,SW,234,0.0,0.0,92,0.00,,,0.00,0.0,meteohub,2013-08-13 08:42:00,
2013-08-13 01:47:00,52.0,49.6,-100.00,SW,234,0.0,0.0,92,0.00,,,0.00,0.0,meteohub,2013-08-13 08:47:00,
2013-08-13 01:52:00,52.0,50.0,-100.00,SW,234,0.0,0.0,93,0.00,,,0.00,0.0,meteohub,2013-08-13 08:52:00,
2013-08-13 01:57:00,52.0,50.0,-100.00,SW,234,0.0,0.0,93,0.00,,,0.00,0.0,meteohub,2013-08-13 08:57:00,
2013-08-13 02:02:00,52.0,50.0,-100.00,SW,234,0.0,0.0,93,0.00,,,0.00,0.0,meteohub,2013-08-13 09:02:00,
2013-08-13 02:07:00,52.2,50.2,-100.00,SW,234,0.0,0.0,93,0.00,,,0.00,0.0,meteohub,2013-08-13 09:07:00,
2013-08-13 02:12:00,52.2,50.2,-100.00,SW,234,0.0,0.0,93,0.00,,,0.00,0.0,meteohub,2013-08-13 09:12:00,
2013-08-13 02:17:00,52.2,50.2,-100.00,SW,234,0.0,1.0,93,0.00,,,0.00,0.0,meteohub,2013-08-13 09:17:00,
2013-08-13 02:22:00,52.2,50.5,-100.00,SW,234,0.0,1.0,94,0.00,,,0.00,0.0,meteohub,2013-08-13 09:22:00,
2013-08-13 02:28:00,52.3,50.7,-100.00,SW,234,0.0,1.0,94,0.00,,,0.00,0.0,meteohub,2013-08-13 09:28:00,
2013-08-13 02:34:00,52.3,50.7,-100.00,SW,234,0.0,1.0,94,0.00,,,0.00,0.0,meteohub,2013-08-13 09:34:00,
2013-08-13 02:40:00,52.3,50.7,-100.00,SW,234,0.0,1.0,94,0.00,,,0.00,0.0,meteohub,2013-08-13 09:40:00,
2013-08-13 02:46:00,52.5,50.9,-100.00,SW,234,0.0,1.0,94,0.00,,,0.00,0.0,meteohub,2013-08-13 09:46:00,
2013-08-13 02:52:00,52.5,50.9,-100.00,SW,234,0.0,1.0,94,0.00,,,0.00,0.0,meteohub,2013-08-13 09:52:00,
2013-08-13 02:57:00,52.5,50.9,-100.00,SW,234,0.0,1.0,94,0.00,,,0.00,0.0,meteohub,2013-08-13 09:57:00,
2013-08-13 03:02:00,52.5,50.9,-100.00,SW,234,0.0,1.0,94,0.00,,,0.00,0.0,meteohub,2013-08-13 10:02:00,
2013-08-13 03:07:00,52.3,50.7,-100.00,SW,234,0.0,1.0,94,0.00,,,0.00,0.0,meteohub,2013-08-13 10:07:00,
2013-08-13 03:12:00,52.3,50.7,-100.00,SW,234,0.0,1.0,94,0.00,,,0.00,0.0,meteohub,2013-08-13 10:12:00,
2013-08-13 03:17:00,52.3,50.9,-100.00,SW,234,0.0,1.0,95,0.00,,,0.00,0.0,meteohub,2013-08-13 10:17:00,
2013-08-13 03:22:00,52.3,50.7,-100.00,SW,234,0.0,1.0,94,0.00,,,0.00,0.0,meteohub,2013-08-13 10:22:00,
2013-08-13 03:27:00,52.3,50.7,-100.00,SW,234,0.0,1.0,94,0.00,,,0.00,0.0,meteohub,2013-08-13 10:27:00,
2013-08-13 03:32:00,52.3,50.9,-100.00,SW,234,1.0,1.0,95,0.00,,,0.00,0.0,meteohub,2013-08-13 10:32:00,
2013-08-13 03:37:00,52.3,50.9,-100.00,SW,234,0.0,2.0,95,0.00,,,0.00,0.0,meteohub,2013-08-13 10:37:00,
2013-08-13 03:42:00,52.3,50.9,-100.00,SW,234,0.0,2.0,95,0.00,,,0.00,0.0,meteohub,2013-08-13 10:42:00,
2013-08-13 03:47:00,52.3,50.9,-100.00,SW,234,0.0,2.0,95,0.00,,,0.00,0.0,meteohub,2013-08-13 10:47:00,
2013-08-13 03:52:00,52.3,50.7,-100.00,SW,234,0.0,2.0,94,0.00,,,0.00,0.0,meteohub,2013-08-13 10:52:00,
2013-08-13 03:57:00,52.3,50.9,-100.00,SW,234,0.0,0.0,95,0.00,,,0.00,0.0,meteohub,2013-08-13 10:57:00,
2013-08-13 04:02:00,52.3,50.9,-100.00,SW,234,0.0,0.0,95,0.00,,,0.00,0.0,meteohub,2013-08-13 11:02:00,
2013-08-13 04:07:00,52.3,50.7,-100.00,SW,234,0.0,2.0,94,0.00,,,0.00,0.0,meteohub,2013-08-13 11:07:00,
2013-08-13 04:12:00,52.3,50.7,-100.00,WSW,237,0.0,2.0,94,0.00,,,0.00,0.0,meteohub,2013-08-13 11:12:00,
2013-08-13 04:17:00,52.2,50.5,-100.00,WSW,237,0.0,3.0,94,0.00,,,0.00,0.0,meteohub,2013-08-13 11:17:00,
2013-08-13 04:22:00,52.2,50.5,-100.00,WSW,237,0.0,3.0,94,0.00,,,0.00,0.0,meteohub,2013-08-13 11:22:00,
2013-08-13 04:27:00,52.3,50.9,-100.00,WSW,237,0.0,3.0,95,0.00,,,0.00,0.0,meteohub,2013-08-13 11:27:00,
2013-08-13 04:32:00,52.2,50.5,-100.00,WSW,237,0.0,3.0,94,0.00,,,0.00,0.0,meteohub,2013-08-13 11:32:00,
2013-08-13 04:37:00,52.3,50.7,-100.00,NW,323,1.0,1.0,94,0.00,,,0.00,0.0,meteohub,2013-08-13 11:37:00,
2013-08-13 04:43:00,52.2,50.5,-100.00,NW,325,0.0,3.0,94,0.00,,,0.00,0.0,meteohub,2013-08-13 11:43:00,
2013-08-13 04:49:00,52.2,50.5,-100.00,NW,325,0.0,3.0,94,0.00,,,0.00,0.0,meteohub,2013-08-13 11:49:00,
2013-08-13 04:56:00,52.2,50.7,-100.00,NW,325,0.0,2.0,95,0.00,,,0.00,0.0,meteohub,2013-08-13 11:56:00,
2013-08-13 05:02:00,52.0,50.4,-100.00,NW,325,1.0,2.0,94,0.00,,,0.00,0.0,meteohub,2013-08-13 12:02:00,
2013-08-13 05:07:00,52.0,50.4,-100.00,NW,325,0.0,3.0,94,0.00,,,0.00,0.0,meteohub,2013-08-13 12:07:00,
2013-08-13 05:12:00,52.2,50.7,-100.00,NW,325,0.0,3.0,95,0.00,,,0.00,0.0,meteohub,2013-08-13 12:12:00,
2013-08-13 05:17:00,52.2,50.7,-100.00,NW,325,0.0,3.0,95,0.00,,,0.00,0.0,meteohub,2013-08-13 12:17:00,
2013-08-13 05:23:00,52.2,50.5,-100.00,NW,325,0.0,3.0,94,0.00,,,0.00,0.0,meteohub,2013-08-13 12:23:00,
2013-08-13 05:29:00,52.2,50.5,-100.00,NW,325,0.0,2.0,94,0.00,,,0.00,0.0,meteohub,2013-08-13 12:29:00,
2013-08-13 05:35:00,52.2,50.5,-100.00,NNW,346,0.0,4.0,94,0.00,,,0.00,0.0,meteohub,2013-08-13 12:35:00,
2013-08-13 05:41:00,52.2,50.5,-100.00,NNW,346,0.0,4.0,94,0.00,,,0.00,0.0,meteohub,2013-08-13 12:41:00,
2013-08-13 05:47:00,52.2,50.5,-100.00,NNW,346,0.0,4.0,94,0.00,,,0.00,0.0,meteohub,2013-08-13 12:47:00,
2013-08-13 05:52:00,52.0,50.4,-100.00,NNW,346,1.0,4.0,94,0.00,,,0.00,0.0,meteohub,2013-08-13 12:52:00,
2013-08-13 05:57:00,52.0,50.4,-100.00,NNW,346,0.0,2.0,94,0.00,,,0.00,0.0,meteohub,2013-08-13 12:57:00,
2013-08-13 06:02:00,52.0,50.4,-100.00,NNW,346,0.0,2.0,94,0.00,,,0.00,0.0,meteohub,2013-08-13 13:02:00,
2013-08-13 06:07:00,52.0,50.4,-100.00,NNW,346,0.0,1.0,94,0.00,,,0.00,0.0,meteohub,2013-08-13 13:07:00,
2013-08-13 06:12:00,51.8,50.2,-100.00,NNW,346,0.0,1.0,94,0.00,,,0.00,0.0,meteohub,2013-08-13 13:12:00,
2013-08-13 06:17:00,51.8,50.4,-100.00,NNW,346,0.0,2.0,95,0.00,,,0.00,0.0,meteohub,2013-08-13 13:17:00,
2013-08-13 06:22:00,51.8,50.4,-100.00,NNW,346,2.0,2.0,95,0.00,,,0.00,0.0,meteohub,2013-08-13 13:22:00,
2013-08-13 06:29:00,51.6,50.0,-100.00,NNW,346,0.0,3.0,94,0.00,,,0.00,0.0,meteohub,2013-08-13 13:29:00,
2013-08-13 06:35:00,51.6,50.2,-100.00,NNW,346,0.0,3.0,95,0.00,,,0.00,0.0,meteohub,2013-08-13 13:35:00,
2013-08-13 06:41:00,51.4,50.0,-100.00,NNW,346,0.0,3.0,95,0.00,,,0.00,7.0,meteohub,2013-08-13 13:41:00,
2013-08-13 06:47:00,51.4,50.0,-100.00,NNW,346,0.0,3.0,95,0.00,,,0.00,11.0,meteohub,2013-08-13 13:47:00,
2013-08-13 06:53:00,51.4,50.0,-100.00,NNW,346,0.0,1.0,95,0.00,,,0.00,14.0,meteohub,2013-08-13 13:53:00,
2013-08-13 06:59:00,51.6,50.2,-100.00,NNW,346,1.0,1.0,95,0.00,,,0.00,18.0,meteohub,2013-08-13 13:59:00,
2013-08-13 07:06:00,51.4,50.0,-100.00,NNW,346,0.0,1.0,95,0.00,,,0.00,21.0,meteohub,2013-08-13 14:06:00,
2013-08-13 07:12:00,51.4,50.0,-100.00,NNW,346,0.0,1.0,95,0.00,,,0.00,25.0,meteohub,2013-08-13 14:12:00,
2013-08-13 07:17:00,51.4,50.0,-100.00,NNW,346,0.0,1.0,95,0.00,,,0.00,28.0,meteohub,2013-08-13 14:17:00,
2013-08-13 07:22:00,51.4,50.0,-100.00,NNW,346,0.0,1.0,95,0.00,,,0.00,37.0,meteohub,2013-08-13 14:22:00,
2013-08-13 07:27:00,51.6,50.2,-100.00,NNW,346,0.0,1.0,95,0.00,,,0.00,44.0,meteohub,2013-08-13 14:27:00,
2013-08-13 07:32:00,51.6,50.2,-100.00,NNW,346,0.0,1.0,95,0.00,,,0.00,49.0,meteohub,2013-08-13 14:32:00,
2013-08-13 07:37:00,51.6,50.2,-100.00,NNW,346,0.0,1.0,95,0.00,,,0.00,54.0,meteohub,2013-08-13 14:37:00,
2013-08-13 07:42:00,51.6,50.2,-100.00,NNW,346,0.0,1.0,95,0.00,,,0.00,54.0,meteohub,2013-08-13 14:42:00,
2013-08-13 07:47:00,51.4,50.0,-100.00,NNW,346,1.0,1.0,95,0.00,,,0.00,63.0,meteohub,2013-08-13 14:47:00,
2013-08-13 07:53:00,51.4,50.0,-100.00,NNW,346,0.0,1.0,95,0.00,,,0.00,67.0,meteohub,2013-08-13 14:53:00,
2013-08-13 07:59:00,51.6,50.2,-100.00,NNW,340,0.0,3.0,95,0.00,,,0.00,72.0,meteohub,2013-08-13 14:59:00,
2013-08-13 08:05:00,51.6,50.2,-100.00,NNW,340,0.0,3.0,95,0.00,,,0.00,95.0,meteohub,2013-08-13 15:05:00,
2013-08-13 08:11:00,51.8,50.4,-100.00,NNW,340,0.0,3.0,95,0.00,,,0.00,102.0,meteohub,2013-08-13 15:11:00,
2013-08-13 08:17:00,51.8,50.4,-100.00,NNW,340,0.0,3.0,95,0.00,,,0.00,114.0,meteohub,2013-08-13 15:17:00,
2013-08-13 08:22:00,51.8,50.4,-100.00,NNW,340,0.0,1.0,95,0.00,,,0.00,125.0,meteohub,2013-08-13 15:22:00,
2013-08-13 08:27:00,52.0,50.5,-100.00,NNW,340,0.0,1.0,95,0.00,,,0.00,127.0,meteohub,2013-08-13 15:27:00,
2013-08-13 08:32:00,52.2,50.7,-100.00,NNW,340,0.0,1.0,95,0.00,,,0.00,144.0,meteohub,2013-08-13 15:32:00,
2013-08-13 08:37:00,52.5,51.1,-100.00,NNW,340,0.0,1.0,95,0.00,,,0.00,141.0,meteohub,2013-08-13 15:37:00,
2013-08-13 08:42:00,52.9,51.4,-100.00,NNW,340,0.0,1.0,95,0.00,,,0.00,135.0,meteohub,2013-08-13 15:42:00,
2013-08-13 08:47:00,53.2,51.8,-100.00,NNW,340,0.0,1.0,95,0.00,,,0.00,318.0,meteohub,2013-08-13 15:47:00,
2013-08-13 08:52:00,54.1,52.7,-100.00,NNW,340,0.0,1.0,95,0.00,,,0.00,387.0,meteohub,2013-08-13 15:52:00,
2013-08-13 08:57:00,55.0,53.4,-100.00,NNW,340,0.0,1.0,94,0.00,,,0.00,404.0,meteohub,2013-08-13 15:57:00,
2013-08-13 09:03:00,55.9,53.6,-100.00,NNW,340,0.0,2.0,92,0.00,,,0.00,425.0,meteohub,2013-08-13 16:03:00,
2013-08-13 09:09:00,57.2,54.3,-100.00,NNW,340,0.0,2.0,90,0.00,,,0.00,445.0,meteohub,2013-08-13 16:09:00,
2013-08-13 09:15:00,57.9,54.3,-100.00,NNW,340,0.0,2.0,88,0.00,,,0.00,462.0,meteohub,2013-08-13 16:15:00,
2013-08-13 09:22:00,59.2,55.0,-100.00,NNW,340,0.0,2.0,86,0.00,,,0.00,483.0,meteohub,2013-08-13 16:22:00,
2013-08-13 09:27:00,59.9,55.4,-100.00,ENE,67,0.0,2.0,85,0.00,,,0.00,496.0,meteohub,2013-08-13 16:27:00,
2013-08-13 09:32:00,60.4,55.6,-100.00,ENE,67,0.0,3.0,84,0.00,,,0.00,512.0,meteohub,2013-08-13 16:32:00,
2013-08-13 09:37:00,60.6,54.7,-100.00,SW,235,4.0,4.0,81,0.00,,,0.00,527.0,meteohub,2013-08-13 16:37:00,
2013-08-13 09:42:00,60.6,54.7,-100.00,SW,235,1.0,5.0,81,0.00,,,0.00,541.0,meteohub,2013-08-13 16:42:00,
2013-08-13 09:47:00,61.3,56.1,-100.00,SW,235,0.0,5.0,83,0.00,,,0.00,555.0,meteohub,2013-08-13 16:47:00,
2013-08-13 09:52:00,62.2,56.3,-100.00,SW,235,1.0,5.0,81,0.00,,,0.00,571.0,meteohub,2013-08-13 16:52:00,
2013-08-13 09:57:00,63.3,56.7,-100.00,SW,235,2.0,5.0,79,0.00,,,0.00,585.0,meteohub,2013-08-13 16:57:00,
2013-08-13 10:02:00,64.0,56.7,-100.00,SW,235,0.0,2.0,77,0.00,,,0.00,598.0,meteohub,2013-08-13 17:02:00,
2013-08-13 10:07:00,64.6,56.8,-100.00,SW,235,0.0,2.0,76,0.00,,,0.00,610.0,meteohub,2013-08-13 17:07:00,
2013-08-13 10:12:00,64.9,57.6,-100.00,SW,235,2.0,2.0,77,0.00,,,0.00,617.0,meteohub,2013-08-13 17:12:00,
2013-08-13 10:19:00,66.6,57.2,-100.00,WSW,245,0.0,4.0,72,0.00,,,0.00,645.0,meteohub,2013-08-13 17:19:00,
2013-08-13 10:25:00,66.9,56.8,-100.00,WSW,239,2.0,3.0,70,0.00,,,0.00,659.0,meteohub,2013-08-13 17:25:00,
2013-08-13 10:31:00,66.9,56.8,-100.00,SSW,210,0.0,3.0,70,0.00,,,0.00,675.0,meteohub,2013-08-13 17:31:00,
2013-08-13 10:37:00,67.1,57.0,-100.00,WSW,244,5.0,7.0,70,0.00,,,0.00,687.0,meteohub,2013-08-13 17:37:00,
2013-08-13 10:42:00,67.5,57.7,-100.00,South,185,3.0,7.0,71,0.00,,,0.00,700.0,meteohub,2013-08-13 17:42:00,
2013-08-13 10:47:00,68.0,58.3,-100.00,South,173,1.0,7.0,71,0.00,,,0.00,712.0,meteohub,2013-08-13 17:47:00,
2013-08-13 10:52:00,69.1,58.8,-100.00,SW,221,5.0,7.0,70,0.00,,,0.00,724.0,meteohub,2013-08-13 17:52:00,
2013-08-13 10:57:00,69.4,57.9,-100.00,SW,227,4.0,5.0,67,0.00,,,0.00,735.0,meteohub,2013-08-13 17:57:00,
2013-08-13 11:02:00,69.6,58.1,-100.00,SSW,207,2.0,5.0,67,0.00,,,0.00,745.0,meteohub,2013-08-13 18:02:00,
2013-08-13 11:07:00,70.2,58.3,-100.00,SW,227,1.0,6.0,66,0.00,,,0.00,756.0,meteohub,2013-08-13 18:07:00,
2013-08-13 11:12:00,71.1,58.6,-100.00,SW,228,0.0,6.0,65,0.00,,,0.00,766.0,meteohub,2013-08-13 18:12:00,
2013-08-13 11:17:00,71.8,59.7,-100.00,SW,229,1.0,6.0,66,0.00,,,0.00,777.0,meteohub,2013-08-13 18:17:00,
2013-08-13 11:22:00,72.5,59.5,-100.00,SW,229,0.0,6.0,64,0.00,,,0.00,788.0,meteohub,2013-08-13 18:22:00,
2013-08-13 11:28:00,73.9,60.1,-100.00,SW,229,0.0,6.0,62,0.00,,,0.00,800.0,meteohub,2013-08-13 18:28:00,
2013-08-13 11:35:00,75.4,60.1,-100.00,SW,229,1.0,5.0,59,0.00,,,0.00,812.0,meteohub,2013-08-13 18:35:00,
2013-08-13 11:41:00,76.3,60.4,-100.00,SSE,150,0.0,2.0,58,0.00,,,0.00,821.0,meteohub,2013-08-13 18:41:00,
2013-08-13 11:47:00,76.8,59.9,-100.00,SSE,150,2.0,2.0,56,0.00,,,0.00,830.0,meteohub,2013-08-13 18:47:00,
2013-08-13 11:52:00,77.5,60.6,-100.00,SSE,150,0.0,2.0,56,0.00,,,0.00,838.0,meteohub,2013-08-13 18:52:00,
2013-08-13 11:57:00,78.1,60.1,-100.00,ESE,120,2.0,4.0,54,0.00,,,0.00,844.0,meteohub,2013-08-13 18:57:00,
2013-08-13 12:02:00,78.6,60.1,-100.00,SE,133,0.0,4.0,53,0.00,,,0.00,851.0,meteohub,2013-08-13 19:02:00,
2013-08-13 12:07:00,79.3,60.8,-100.00,SE,133,0.0,4.0,53,0.00,,,0.00,860.0,meteohub,2013-08-13 19:07:00,
2013-08-13 12:12:00,79.9,61.7,-100.00,SSW,192,2.0,4.0,54,0.00,,,0.00,865.0,meteohub,2013-08-13 19:12:00,
2013-08-13 12:17:00,79.9,60.1,-100.00,SW,231,1.0,4.0,51,0.00,,,0.00,868.0,meteohub,2013-08-13 19:17:00,
2013-08-13 12:22:00,80.4,60.6,-100.00,SSW,196,2.0,5.0,51,0.00,,,0.00,872.0,meteohub,2013-08-13 19:22:00,
2013-08-13 12:27:00,80.4,60.6,-100.00,SSW,196,0.0,5.0,51,0.00,,,0.00,877.0,meteohub,2013-08-13 19:27:00,
2013-08-13 12:32:00,81.3,62.1,-100.00,South,186,0.0,5.0,52,0.00,,,0.00,881.0,meteohub,2013-08-13 19:32:00,
2013-08-13 12:38:00,82.0,61.0,-100.00,WSW,240,1.0,5.0,49,0.00,,,0.00,884.0,meteohub,2013-08-13 19:38:00,
2013-08-13 12:44:00,81.9,60.3,-100.00,SW,231,0.0,7.0,48,0.00,,,0.00,889.0,meteohub,2013-08-13 19:44:00,
2013-08-13 12:51:00,82.0,61.5,-100.00,SW,215,1.0,7.0,50,0.00,,,0.00,891.0,meteohub,2013-08-13 19:51:00,
2013-08-13 12:57:00,82.2,61.7,-100.00,SW,236,3.0,8.0,50,0.00,,,0.00,895.0,meteohub,2013-08-13 19:57:00,
2013-08-13 13:02:00,82.8,62.2,-100.00,SW,223,4.0,8.0,50,0.00,,,0.00,896.0,meteohub,2013-08-13 20:02:00,
2013-08-13 13:07:00,82.6,61.0,-100.00,SW,219,7.0,8.0,48,0.00,,,0.00,898.0,meteohub,2013-08-13 20:07:00,
2013-08-13 13:12:00,82.2,61.2,-100.00,SW,223,7.0,8.0,49,0.00,,,0.00,896.0,meteohub,2013-08-13 20:12:00,
2013-08-13 13:17:00,82.4,61.3,-100.00,SW,231,0.0,9.0,49,0.00,,,0.00,900.0,meteohub,2013-08-13 20:17:00,
2013-08-13 13:22:00,82.9,61.2,-100.00,SW,236,4.0,9.0,48,0.00,,,0.00,900.0,meteohub,2013-08-13 20:22:00,
2013-08-13 13:27:00,83.1,60.8,-100.00,SSW,213,9.0,10.0,47,0.00,,,0.00,898.0,meteohub,2013-08-13 20:27:00,
2013-08-13 13:32:00,83.5,61.2,-100.00,SW,220,7.0,10.0,47,0.00,,,0.00,896.0,meteohub,2013-08-13 20:32:00,
2013-08-13 13:37:00,83.7,61.3,-100.00,WSW,248,5.0,10.0,47,0.00,,,0.00,895.0,meteohub,2013-08-13 20:37:00,
2013-08-13 13:42:00,83.8,60.8,-100.00,SW,233,5.0,10.0,46,0.00,,,0.00,893.0,meteohub,2013-08-13 20:42:00,
2013-08-13 13:47:00,84.4,61.3,-100.00,SW,215,1.0,10.0,46,0.00,,,0.00,893.0,meteohub,2013-08-13 20:47:00,
2013-08-13 13:52:00,83.8,59.5,-100.00,South,190,1.0,10.0,44,0.00,,,0.00,891.0,meteohub,2013-08-13 20:52:00,
2013-08-13 13:58:00,83.7,58.8,-100.00,SW,227,4.0,11.0,43,0.00,,,0.00,884.0,meteohub,2013-08-13 20:58:00,
2013-08-13 14:04:00,84.0,59.2,-100.00,SW,233,2.0,11.0,43,0.00,,,0.00,877.0,meteohub,2013-08-13 21:04:00,
2013-08-13 14:11:00,84.6,59.0,-100.00,SW,232,1.0,11.0,42,0.00,,,0.00,872.0,meteohub,2013-08-13 21:11:00,
2013-08-13 14:17:00,84.7,58.5,-100.00,WSW,243,0.0,9.0,41,0.00,,,0.00,868.0,meteohub,2013-08-13 21:17:00,
2013-08-13 14:22:00,84.6,59.0,-100.00,South,179,5.0,9.0,42,0.00,,,0.00,865.0,meteohub,2013-08-13 21:22:00,
2013-08-13 14:27:00,84.4,58.1,-100.00,SW,219,6.0,9.0,41,0.00,,,0.00,858.0,meteohub,2013-08-13 21:27:00,
2013-08-13 14:32:00,84.6,58.3,-100.00,WSW,238,5.0,9.0,41,0.00,,,0.00,851.0,meteohub,2013-08-13 21:32:00,
2013-08-13 14:37:00,84.6,56.8,-100.00,WSW,240,3.0,9.0,39,0.00,,,0.00,846.0,meteohub,2013-08-13 21:37:00,
2013-08-13 14:42:00,84.6,56.1,-100.00,South,190,1.0,9.0,38,0.00,,,0.00,835.0,meteohub,2013-08-13 21:42:00,
2013-08-13 14:47:00,84.6,56.8,-100.00,West,260,5.0,9.0,39,0.00,,,0.00,828.0,meteohub,2013-08-13 21:47:00,
2013-08-13 14:52:00,84.4,55.9,-100.00,WSW,253,4.0,9.0,38,0.00,,,0.00,823.0,meteohub,2013-08-13 21:52:00,
2013-08-13 14:58:00,83.8,56.3,-100.00,West,261,4.0,10.0,39,0.00,,,0.00,816.0,meteohub,2013-08-13 21:58:00,
2013-08-13 15:04:00,83.8,57.0,-100.00,WSW,242,3.0,9.0,40,0.00,,,0.00,805.0,meteohub,2013-08-13 22:04:00,
2013-08-13 15:10:00,83.7,56.8,-100.00,SW,236,7.0,9.0,40,0.00,,,0.00,796.0,meteohub,2013-08-13 22:10:00,
2013-08-13 15:16:00,83.7,56.8,-100.00,WSW,250,5.0,10.0,40,0.00,,,0.00,784.0,meteohub,2013-08-13 22:16:00,
2013-08-13 15:22:00,83.7,57.4,-100.00,SW,227,6.0,10.0,41,0.00,,,0.00,773.0,meteohub,2013-08-13 22:22:00,
2013-08-13 15:27:00,83.1,57.0,-100.00,WSW,244,8.0,11.0,41,0.00,,,0.00,763.0,meteohub,2013-08-13 22:27:00,
2013-08-13 15:32:00,83.5,57.9,-100.00,SW,236,8.0,11.0,42,0.00,,,0.00,754.0,meteohub,2013-08-13 22:32:00,
2013-08-13 15:37:00,83.7,57.4,-100.00,SSW,204,6.0,13.0,41,0.00,,,0.00,745.0,meteohub,2013-08-13 22:37:00,
2013-08-13 15:43:00,83.7,58.1,-100.00,SW,227,9.0,13.0,42,0.00,,,0.00,729.0,meteohub,2013-08-13 22:43:00,
2013-08-13 15:49:00,81.7,57.6,-100.00,SW,233,8.0,13.0,44,0.00,,,0.00,715.0,meteohub,2013-08-13 22:49:00,
2013-08-13 15:55:00,81.5,58.1,-100.00,WSW,253,6.0,14.0,45,0.00,,,0.00,701.0,meteohub,2013-08-13 22:55:00,
2013-08-13 16:01:00,81.1,57.2,-100.00,West,259,5.0,14.0,44,0.00,,,0.00,684.0,meteohub,2013-08-13 23:01:00,
2013-08-13 16:07:00,81.1,57.2,-100.00,SW,236,5.0,14.0,44,0.00,,,0.00,671.0,meteohub,2013-08-13 23:07:00,
2013-08-13 16:12:00,81.9,57.2,-100.00,WSW,250,5.0,14.0,43,0.00,,,0.00,659.0,meteohub,2013-08-13 23:12:00,
2013-08-13 16:17:00,82.0,56.7,-100.00,WSW,248,0.0,9.0,42,0.00,,,0.00,649.0,meteohub,2013-08-13 23:17:00,
2013-08-13 16:22:00,82.0,57.4,-100.00,SW,227,4.0,9.0,43,0.00,,,0.00,636.0,meteohub,2013-08-13 23:22:00,
2013-08-13 16:27:00,82.2,56.8,-100.00,WSW,249,0.0,7.0,42,0.00,,,0.00,622.0,meteohub,2013-08-13 23:27:00,
2013-08-13 16:32:00,82.4,57.0,-100.00,West,262,3.0,7.0,42,0.00,,,0.00,608.0,meteohub,2013-08-13 23:32:00,
2013-08-13 16:38:00,82.8,56.7,-100.00,SW,215,1.0,8.0,41,0.00,,,0.00,587.0,meteohub,2013-08-13 23:38:00,
2013-08-13 16:44:00,83.1,57.6,-100.00,SW,226,1.0,9.0,42,0.00,,,0.00,570.0,meteohub,2013-08-13 23:44:00,
2013-08-13 16:50:00,83.5,57.9,-100.00,WSW,237,8.0,9.0,42,0.00,,,0.00,552.0,meteohub,2013-08-13 23:50:00,
2013-08-13 16:57:00,83.3,57.7,-100.00,SW,217,4.0,8.0,42,0.00,,,0.00,534.0,meteohub,2013-08-13 23:57:00,
2013-08-13 17:02:00,82.9,56.8,-100.00,SW,221,1.0,8.0,41,0.00,,,0.00,519.0,meteohub,2013-08-14 00:02:00,
2013-08-13 17:07:00,82.6,57.2,-100.00,SW,235,3.0,8.0,42,0.00,,,0.00,504.0,meteohub,2013-08-14 00:07:00,
2013-08-13 17:12:00,82.8,57.4,-100.00,WSW,239,2.0,8.0,42,0.00,,,0.00,489.0,meteohub,2013-08-14 00:12:00,
2013-08-13 17:17:00,82.6,57.7,-100.00,West,259,0.0,9.0,43,0.00,,,0.00,473.0,meteohub,2013-08-14 00:17:00,
2013-08-13 17:22:00,82.2,58.1,-100.00,SW,217,10.0,10.0,44,0.00,,,0.00,457.0,meteohub,2013-08-14 00:22:00,
2013-08-13 17:27:00,81.9,57.7,-100.00,SW,229,9.0,10.0,44,0.00,,,0.00,443.0,meteohub,2013-08-14 00:27:00,
2013-08-13 17:32:00,81.5,57.6,-100.00,SW,230,10.0,10.0,44,0.00,,,0.00,427.0,meteohub,2013-08-14 00:32:00,
2013-08-13 17:37:00,81.7,58.3,-100.00,SW,227,5.0,12.0,45,0.00,,,0.00,410.0,meteohub,2013-08-14 00:37:00,
2013-08-13 17:42:00,81.5,58.6,-100.00,WSW,257,0.0,12.0,46,0.00,,,0.00,394.0,meteohub,2013-08-14 00:42:00,
2013-08-13 17:47:00,81.0,58.3,-100.00,WSW,242,1.0,12.0,46,0.00,,,0.00,378.0,meteohub,2013-08-14 00:47:00,
2013-08-13 17:52:00,81.0,58.8,-100.00,SW,222,1.0,12.0,47,0.00,,,0.00,359.0,meteohub,2013-08-14 00:52:00,
2013-08-13 17:57:00,81.0,58.3,-100.00,SW,223,0.0,7.0,46,0.00,,,0.00,343.0,meteohub,2013-08-14 00:57:00,
2013-08-13 18:02:00,81.0,58.3,-100.00,WSW,246,4.0,7.0,46,0.00,,,0.00,330.0,meteohub,2013-08-14 01:02:00,
2013-08-13 18:07:00,80.8,58.1,-100.00,WSW,244,5.0,7.0,46,0.00,,,0.00,315.0,meteohub,2013-08-14 01:07:00,
2013-08-13 18:12:00,80.2,57.6,-100.00,WNW,292,1.0,7.0,46,0.00,,,0.00,299.0,meteohub,2013-08-14 01:12:00,
2013-08-13 18:17:00,80.2,57.6,-100.00,West,261,1.0,5.0,46,0.00,,,0.00,281.0,meteohub,2013-08-14 01:17:00,
2013-08-13 18:23:00,80.2,58.1,-100.00,SW,218,0.0,5.0,47,0.00,,,0.00,70.0,meteohub,2013-08-14 01:23:00,
2013-08-13 18:29:00,79.5,58.1,-100.00,SW,229,0.0,6.0,48,0.00,,,0.00,33.0,meteohub,2013-08-14 01:29:00,
2013-08-13 18:35:00,78.6,59.0,-100.00,SW,229,0.0,6.0,51,0.00,,,0.00,30.0,meteohub,2013-08-14 01:35:00,
2013-08-13 18:41:00,77.4,59.4,-100.00,SW,229,2.0,4.0,54,0.00,,,0.00,28.0,meteohub,2013-08-14 01:41:00,
2013-08-13 18:47:00,76.5,59.2,-100.00,SW,229,1.0,1.0,55,0.00,,,0.00,26.0,meteohub,2013-08-14 01:47:00,
2013-08-13 18:52:00,75.6,58.3,-100.00,SW,231,2.0,2.0,55,0.00,,,0.00,26.0,meteohub,2013-08-14 01:52:00,
2013-08-13 18:57:00,75.0,58.3,-100.00,WNW,286,2.0,4.0,56,0.00,,,0.00,25.0,meteohub,2013-08-14 01:57:00,
2013-08-13 19:02:00,74.8,57.0,-100.00,West,277,2.0,4.0,54,0.00,,,0.00,25.0,meteohub,2013-08-14 02:02:00,
2013-08-13 19:07:00,74.8,58.1,-100.00,WNW,287,2.0,4.0,56,0.00,,,0.00,23.0,meteohub,2013-08-14 02:07:00,
2013-08-13 19:12:00,74.5,58.3,-100.00,WNW,287,1.0,4.0,57,0.00,,,0.00,21.0,meteohub,2013-08-14 02:12:00,
2013-08-13 19:17:00,74.1,58.5,-100.00,WNW,287,0.0,5.0,58,0.00,,,0.00,21.0,meteohub,2013-08-14 02:17:00,
2013-08-13 19:22:00,73.6,58.3,-100.00,WNW,287,1.0,5.0,59,0.00,,,0.00,19.0,meteohub,2013-08-14 02:22:00,
2013-08-13 19:27:00,73.0,58.3,-100.00,WNW,287,0.0,2.0,60,0.00,,,0.00,18.0,meteohub,2013-08-14 02:27:00,
2013-08-13 19:32:00,73.2,58.1,-100.00,WNW,287,1.0,2.0,59,0.00,,,0.00,16.0,meteohub,2013-08-14 02:32:00,
2013-08-13 19:37:00,72.9,58.1,-100.00,WNW,287,0.0,2.0,60,0.00,,,0.00,14.0,meteohub,2013-08-14 02:37:00,
2013-08-13 19:42:00,72.7,58.5,-100.00,WNW,287,0.0,2.0,61,0.00,,,0.00,14.0,meteohub,2013-08-14 02:42:00,
2013-08-13 19:47:00,72.5,58.8,-100.00,WNW,287,0.0,1.0,62,0.00,,,0.00,12.0,meteohub,2013-08-14 02:47:00,
2013-08-13 19:52:00,72.3,58.1,-100.00,WNW,287,0.0,1.0,61,0.00,,,0.00,9.0,meteohub,2013-08-14 02:52:00,
2013-08-13 19:57:00,72.1,57.9,-100.00,WNW,286,0.0,2.0,61,0.00,,,0.00,7.0,meteohub,2013-08-14 02:57:00,
2013-08-13 20:02:00,72.0,58.3,-100.00,WNW,286,0.0,2.0,62,0.00,,,0.00,0.0,meteohub,2013-08-14 03:02:00,
2013-08-13 20:07:00,71.8,57.6,-100.00,WNW,286,0.0,2.0,61,0.00,,,0.00,0.0,meteohub,2013-08-14 03:07:00,
2013-08-13 20:14:00,71.2,57.0,-100.00,WNW,286,0.0,1.0,61,0.00,,,0.00,0.0,meteohub,2013-08-14 03:14:00,
2013-08-13 20:20:00,70.9,57.2,-100.00,WNW,286,0.0,1.0,62,0.00,,,0.00,0.0,meteohub,2013-08-14 03:20:00,
2013-08-13 20:26:00,70.3,57.2,-100.00,WNW,286,0.0,1.0,63,0.00,,,0.00,0.0,meteohub,2013-08-14 03:26:00,
2013-08-13 20:32:00,70.0,57.2,-100.00,WNW,286,0.0,1.0,64,0.00,,,0.00,0.0,meteohub,2013-08-14 03:32:00,
2013-08-13 20:37:00,69.4,57.2,-100.00,WNW,286,0.0,1.0,65,0.00,,,0.00,0.0,meteohub,2013-08-14 03:37:00,
2013-08-13 20:42:00,69.3,57.0,-100.00,WSW,255,2.0,2.0,65,0.00,,,0.00,0.0,meteohub,2013-08-14 03:42:00,
2013-08-13 20:47:00,68.7,56.8,-100.00,WSW,255,0.0,4.0,66,0.00,,,0.00,0.0,meteohub,2013-08-14 03:47:00,
2013-08-13 20:52:00,68.4,57.0,-100.00,WSW,255,0.0,4.0,67,0.00,,,0.00,0.0,meteohub,2013-08-14 03:52:00,
2013-08-13 20:57:00,67.8,56.8,-100.00,WSW,255,0.0,2.0,68,0.00,,,0.00,0.0,meteohub,2013-08-14 03:57:00,
2013-08-13 21:01:00,67.5,56.5,-100.00,WSW,255,0.0,2.0,68,0.00,,,0.00,0.0,meteohub,2013-08-14 04:01:00,
2013-08-13 21:02:00,67.5,56.5,-100.00,WSW,255,0.0,2.0,68,0.00,,,0.00,0.0,meteohub,2013-08-14 04:02:00,
2013-08-13 21:03:00,67.5,57.0,-100.00,WSW,255,0.0,1.0,69,0.00,,,0.00,0.0,meteohub,2013-08-14 04:03:00,
2013-08-13 21:05:00,67.3,56.8,-100.00,WSW,255,0.0,1.0,69,0.00,,,0.00,0.0,meteohub,2013-08-14 04:05:00,
2013-08-13 21:11:00,66.7,56.7,-100.00,WSW,255,0.0,1.0,70,0.00,,,0.00,0.0,meteohub,2013-08-14 04:11:00,
2013-08-13 21:12:00,66.7,56.7,-100.00,WSW,255,0.0,1.0,70,0.00,,,0.00,0.0,meteohub,2013-08-14 04:12:00,
2013-08-13 21:17:00,66.6,56.5,-100.00,WSW,255,0.0,1.0,70,0.00,,,0.00,0.0,meteohub,2013-08-14 04:17:00,
2013-08-13 21:22:00,66.4,56.7,-100.00,WSW,255,0.0,1.0,71,0.00,,,0.00,0.0,meteohub,2013-08-14 04:22:00,
2013-08-13 21:27:00,65.8,56.1,-100.00,WSW,255,0.0,1.0,71,0.00,,,0.00,0.0,meteohub,2013-08-14 04:27:00,
2013-08-13 21:32:00,65.7,56.3,-100.00,WSW,255,0.0,1.0,72,0.00,,,0.00,0.0,meteohub,2013-08-14 04:32:00,
2013-08-13 21:37:00,65.1,56.3,-100.00,WSW,255,0.0,1.0,73,0.00,,,0.00,0.0,meteohub,2013-08-14 04:37:00,
2013-08-13 21:42:00,64.9,56.1,-100.00,WSW,255,0.0,1.0,73,0.00,,,0.00,0.0,meteohub,2013-08-14 04:42:00,
2013-08-13 21:47:00,64.8,56.3,-100.00,WSW,255,0.0,1.0,74,0.00,,,0.00,0.0,meteohub,2013-08-14 04:47:00,
2013-08-13 21:52:00,64.6,56.1,-100.00,WSW,255,0.0,1.0,74,0.00,,,0.00,0.0,meteohub,2013-08-14 04:52:00,
2013-08-13 21:57:00,64.0,55.9,-100.00,WSW,255,0.0,1.0,75,0.00,,,0.00,0.0,meteohub,2013-08-14 04:57:00,
2013-08-13 22:02:00,63.9,55.8,-100.00,WSW,255,0.0,1.0,75,0.00,,,0.00,0.0,meteohub,2013-08-14 05:02:00,
2013-08-13 22:07:00,63.5,55.8,-100.00,WSW,255,0.0,1.0,76,0.00,,,0.00,0.0,meteohub,2013-08-14 05:07:00,
2013-08-13 22:12:00,63.1,55.4,-100.00,WSW,255,0.0,1.0,76,0.00,,,0.00,0.0,meteohub,2013-08-14 05:12:00,
2013-08-13 22:17:00,63.0,55.6,-100.00,WSW,255,0.0,0.0,77,0.00,,,0.00,0.0,meteohub,2013-08-14 05:17:00,
2013-08-13 22:22:00,63.0,55.6,-100.00,WSW,255,0.0,0.0,77,0.00,,,0.00,0.0,meteohub,2013-08-14 05:22:00,
2013-08-13 22:27:00,62.8,55.4,-100.00,WSW,255,0.0,1.0,77,0.00,,,0.00,0.0,meteohub,2013-08-14 05:27:00,
2013-08-13 22:32:00,62.8,55.4,-100.00,WSW,255,0.0,1.0,77,0.00,,,0.00,0.0,meteohub,2013-08-14 05:32:00,
2013-08-13 22:37:00,62.4,55.4,-100.00,WSW,255,0.0,0.0,78,0.00,,,0.00,0.0,meteohub,2013-08-14 05:37:00,
2013-08-13 22:42:00,62.2,55.2,-100.00,WSW,255,0.0,0.0,78,0.00,,,0.00,0.0,meteohub,2013-08-14 05:42:00,
2013-08-13 22:47:00,61.9,55.2,-100.00,WSW,255,0.0,0.0,79,0.00,,,0.00,0.0,meteohub,2013-08-14 05:47:00,
2013-08-13 22:52:00,61.7,55.0,-100.00,WSW,255,0.0,0.0,79,0.00,,,0.00,0.0,meteohub,2013-08-14 05:52:00,
2013-08-13 22:57:00,61.5,54.9,-100.00,WSW,255,0.0,0.0,79,0.00,,,0.00,0.0,meteohub,2013-08-14 05:57:00,
2013-08-13 23:02:00,61.2,54.9,-100.00,WSW,255,0.0,0.0,80,0.00,,,0.00,0.0,meteohub,2013-08-14 06:02:00,
2013-08-13 23:07:00,61.0,55.0,-100.00,WSW,255,0.0,0.0,81,0.00,,,0.00,0.0,meteohub,2013-08-14 06:07:00,
2013-08-13 23:12:00,60.6,54.7,-100.00,WSW,255,0.0,0.0,81,0.00,,,0.00,0.0,meteohub,2013-08-14 06:12:00,
2013-08-13 23:17:00,60.6,54.7,-100.00,WSW,255,0.0,1.0,81,0.00,,,0.00,0.0,meteohub,2013-08-14 06:17:00,
2013-08-13 23:22:00,60.4,54.5,-100.00,WSW,255,0.0,1.0,81,0.00,,,0.00,0.0,meteohub,2013-08-14 06:22:00,
2013-08-13 23:27:00,60.1,54.5,-100.00,WSW,255,0.0,0.0,82,0.00,,,0.00,0.0,meteohub,2013-08-14 06:27:00,
2013-08-13 23:32:00,60.1,54.5,-100.00,WSW,255,0.0,0.0,82,0.00,,,0.00,0.0,meteohub,2013-08-14 06:32:00,
2013-08-13 23:37:00,59.7,54.5,-100.00,WSW,255,0.0,0.0,83,0.00,,,0.00,0.0,meteohub,2013-08-14 06:37:00,
2013-08-13 23:42:00,59.5,54.3,-100.00,WSW,255,0.0,0.0,83,0.00,,,0.00,0.0,meteohub,2013-08-14 06:42:00,
2013-08-13 23:47:00,59.5,54.3,-100.00,WSW,255,0.0,0.0,83,0.00,,,0.00,0.0,meteohub,2013-08-14 06:47:00,
2013-08-13 23:52:00,59.4,54.1,-100.00,WSW,255,0.0,0.0,83,0.00,,,0.00,0.0,meteohub,2013-08-14 06:52:00,
2013-08-13 23:57:00,59.2,54.3,-100.00,WSW,255,0.0,1.0,84,0.00,,,0.00,0.0,meteohub,2013-08-14 06:57:00,